CW0630 Weather Reports


Display with metric or nautical units.
time (UTC)temp
F
wind
direction
speed
MPH
gust
MPH
rain 1hr
in
rain 24hr
in
rain mn
in
humidity
%
barometer
mb
20180818011016 84 188 3.0 8.0 0.00 0.00 0.00 80 1015.9
20180818010518 84 195 4.0 8.0 0.00 0.00 0.00 79 1015.8
20180818010009 84 202 2.0 7.0 0.00 0.00 0.00 79 1015.9
20180818005515 84 187 3.0 5.0 0.00 0.00 0.00 79 1015.9
20180818005013 84 202 3.0 7.0 0.00 0.00 0.00 79 1015.7
20180818004520 84 164 3.0 7.0 0.00 0.00 0.00 78 1015.6
20180818004020 84 206 2.0 8.0 0.00 0.00 0.00 78 1015.6
20180818003524 85 196 4.0 8.0 0.00 0.00 0.00 78 1015.7
20180818003004 85 188 3.0 7.0 0.00 0.00 0.00 78 1015.6
20180818002510 85 192 4.0 7.0 0.00 0.00 0.00 77 1015.5
20180818002019 85 171 2.0 7.0 0.00 0.00 0.00 77 1015.5
20180818001523 85 194 4.0 7.0 0.00 0.00 0.00 77 1015.6
20180818001022 85 194 3.0 5.0 0.00 0.00 0.00 76 1015.7
20180818000506 86 162 3.0 9.0 0.00 0.00 0.00 76 1015.7
20180818000018 86 200 3.0 9.0 0.00 0.00 0.00 75 1015.7
20180817235505 86 206 2.0 7.0 0.00 0.00 0.00 75 1015.7
20180817235024 86 196 3.0 7.0 0.00 0.00 0.00 75 1015.7
20180817234513 87 188 2.0 7.0 0.00 0.00 0.00 75 1015.7
20180817234013 87 186 3.0 7.0 0.00 0.00 0.00 74 1015.8
20180817233514 87 204 3.0 8.0 0.00 0.00 0.00 75 1015.8
20180817233011 87 183 5.0 8.0 0.00 0.00 0.00 73 1015.8
20180817232517 88 181 4.0 7.0 0.00 0.00 0.00 73 1015.8
20180817232007 88 182 2.0 10.0 0.00 0.00 0.00 73 1015.7
20180817231512 88 193 5.0 10.0 0.00 0.00 0.00 71 1015.7
20180817231009 88 202 4.0 12.0 0.00 0.00 0.00 72 1015.8
20180817230515 88 168 6.0 12.0 0.00 0.00 0.00 71 1015.7
20180817230015 89 182 5.0 10.0 0.00 0.00 0.00 70 1015.9
20180817225521 89 217 5.0 10.0 0.00 0.00 0.00 70 1015.7
20180817225015 89 170 4.0 11.0 0.00 0.00 0.00 71 1015.7
20180817224521 89 193 7.0 11.0 0.00 0.00 0.00 70 1015.6
20180817224024 89 193 6.0 10.0 0.00 0.00 0.00 69 1015.8
20180817223505 89 199 4.0 9.0 0.00 0.00 0.00 70 1015.7
20180817223010 89 202 4.0 11.0 0.00 0.00 0.00 72 1015.9
20180817222516 89 183 6.0 11.0 0.00 0.00 0.00 68 1015.7
20180817222014 90 222 8.0 14.0 0.00 0.00 0.00 67 1015.6
20180817221518 90 203 9.0 14.0 0.00 0.00 0.00 67 1015.6
20180817221018 90 197 6.0 13.0 0.00 0.00 0.00 67 1015.7
20180817220522 90 190 7.0 12.0 0.00 0.00 0.00 66 1015.7
20180817220021 90 190 7.0 11.0 0.00 0.00 0.00 67 1015.7
20180817215507 90 125 6.0 10.0 0.00 0.00 0.00 68 1015.8
20180817215005 90 225 6.0 13.0 0.00 0.00 0.00 66 1015.9
20180817214512 90 208 7.0 15.0 0.00 0.00 0.00 65 1016.0
20180817214013 91 183 10.0 15.0 0.00 0.00 0.00 64 1016.1
20180817213517 91 189 6.0 14.0 0.00 0.00 0.00 66 1016.0
20180817213024 91 172 7.0 14.0 0.00 0.00 0.00 66 1016.0
20180817212509 91 218 3.0 15.0 0.00 0.00 0.00 66 1016.0
20180817212007 91 212 8.0 15.0 0.00 0.00 0.00 65 1015.9
20180817211513 91 172 6.0 17.0 0.00 0.00 0.00 65 1016.0
20180817211014 91 168 8.0 17.0 0.00 0.00 0.00 64 1016.1
20180817210517 91 175 6.0 15.0 0.00 0.00 0.00 65 1016.2
20180817210019 91 183 7.0 15.0 0.00 0.00 0.00 64 1016.2
20180817205506 91 162 6.0 13.0 0.00 0.00 0.00 64 1016.2
20180817205024 91 195 6.0 13.0 0.00 0.00 0.00 64 1016.1
20180817204509 91 223 8.0 13.0 0.00 0.00 0.00 62 1016.1
20180817204011 92 166 4.0 16.0 0.00 0.00 0.00 63 1016.1
20180817203519 92 180 6.0 15.0 0.00 0.00 0.00 64 1016.1
20180817203019 92 185 4.0 11.0 0.00 0.00 0.00 63 1016.2
20180817202524 92 175 3.0 10.0 0.00 0.00 0.00 63 1016.3
20180817202020 92 180 6.0 11.0 0.00 0.00 0.00 63 1016.3
20180817201524 93 179 6.0 11.0 0.00 0.00 0.00 63 1016.3
20180817201005 93 221 7.0 13.0 0.00 0.00 0.00 61 1016.3
20180817200507 93 193 6.0 13.0 0.00 0.00 0.00 61 1016.3
20180817200008 92 193 5.0 12.0 0.00 0.00 0.00 61 1016.4
20180817195514 92 160 5.0 12.0 0.00 0.00 0.00 60 1016.5
20180817195012 93 241 5.0 15.0 0.00 0.00 0.00 60 1016.5
20180817194517 93 164 6.0 15.0 0.00 0.00 0.00 60 1016.5
20180817194020 93 177 9.0 17.0 0.00 0.00 0.00 59 1016.6
20180817193506 93 210 4.0 17.0 0.00 0.00 0.00 60 1016.6
20180817193008 93 181 7.0 14.0 0.00 0.00 0.00 61 1016.7
20180817192514 93 153 6.0 14.0 0.00 0.00 0.00 62 1016.7
20180817192012 93 237 6.0 15.0 0.00 0.00 0.00 60 1016.9
20180817191515 93 189 8.0 14.0 0.00 0.00 0.00 60 1016.8
20180817191017 93 224 6.0 11.0 0.00 0.00 0.00 60 1016.9
20180817190519 93 181 6.0 12.0 0.00 0.00 0.00 63 1016.9
20180817190019 92 158 2.0 14.0 0.00 0.00 0.00 64 1017.0
20180817185524 92 224 9.0 14.0 0.00 0.00 0.00 61 1017.0
20180817185023 92 216 7.0 15.0 0.00 0.00 0.00 62 1017.1
20180817184509 92 195 7.0 15.0 0.00 0.00 0.00 62 1017.2
20180817184014 93 196 9.0 14.0 0.00 0.00 0.00 62 1017.2
20180817183517 93 175 4.0 13.0 0.00 0.00 0.00 62 1017.3
20180817183017 92 243 7.0 15.0 0.00 0.00 0.00 62 1017.3
20180817182524 92 187 7.0 15.0 0.00 0.00 0.00 63 1017.4
20180817182020 92 184 8.0 19.0 0.00 0.00 0.00 63 1017.4
20180817181505 92 179 10.0 19.0 0.00 0.00 0.00 62 1017.5
20180817181007 91 199 7.0 11.0 0.00 0.00 0.00 68 1017.6
20180817180510 91 126 4.0 10.0 0.00 0.00 0.00 68 1017.6
20180817180011 91 179 3.0 10.0 0.00 0.00 0.00 68 1017.7
20180817175516 90 176 3.0 10.0 0.00 0.00 0.00 69 1017.8
20180817175014 89 180 6.0 10.0 0.00 0.00 0.00 68 1017.8
20180817174505 89 207 6.0 9.0 0.00 0.00 0.00 69 1018.0
20180817174007 89 245 1.0 11.0 0.00 0.00 0.00 72 1017.9
20180817173509 89 174 7.0 11.0 0.00 0.00 0.00 68 1018.0
20180817173010 90 191 4.0 9.0 0.00 0.00 0.00 69 1017.9
20180817172516 90 172 4.0 10.0 0.00 0.00 0.00 68 1017.9
20180817172013 91 202 6.0 12.0 0.00 0.00 0.00 66 1017.9
20180817171519 91 169 6.0 12.0 0.00 0.00 0.00 64 1017.9
20180817171020 92 230 3.0 12.0 0.00 0.00 0.00 68 1017.9
20180817170525 91 164 4.0 13.0 0.00 0.00 0.00 65 1017.8
20180817170005 91 187 8.0 13.0 0.00 0.00 0.00 66 1017.9
20180817165511 91 174 7.0 12.0 0.00 0.00 0.00 63 1017.9
20180817165010 92 180 5.0 14.0 0.00 0.00 0.00 63 1018.0
20180817164519 93 201 8.0 14.0 0.00 0.00 0.00 62 1018.0
20180817164020 93 188 4.0 12.0 0.00 0.00 0.00 64 1018.0
20180817163524 93 197 6.0 12.0 0.00 0.00 0.00 63 1018.1
20180817163024 93 184 2.0 9.0 0.00 0.00 0.00 66 1018.1
20180817162510 93 267 4.0 7.0 0.00 0.00 0.00 65 1018.2
20180817162010 92 253 5.0 9.0 0.00 0.00 0.00 65 1018.3
20180817161515 92 185 4.0 14.0 0.00 0.00 0.00 66 1018.4
20180817161016 91 191 7.0 14.0 0.00 0.00 0.00 63 1018.5
20180817160519 92 204 4.0 11.0 0.00 0.00 0.00 64 1018.5
20180817160019 92 156 4.0 11.0 0.00 0.00 0.00 68 1018.6
20180817155506 92 203 6.0 12.0 0.00 0.00 0.00 66 1018.6
20180817155009 91 183 5.0 11.0 0.00 0.00 0.00 67 1018.7
20180817154516 91 202 6.0 12.0 0.00 0.00 0.00 67 1018.8
20180817154016 91 202 7.0 12.0 0.00 0.00 0.00 66 1018.8
20180817153519 90 195 3.0 11.0 0.00 0.00 0.00 69 1018.8
20180817153021 90 156 7.0 11.0 0.00 0.00 0.00 68 1018.8
20180817152507 90 158 5.0 10.0 0.00 0.00 0.00 69 1018.9
20180817152005 90 209 5.0 9.0 0.00 0.00 0.00 68 1018.9
20180817151511 90 177 5.0 9.0 0.00 0.00 0.00 70 1019.0
20180817151011 90 172 4.0 9.0 0.00 0.00 0.00 68 1018.9
20180817150514 90 239 6.0 9.0 0.00 0.00 0.00 68 1019.0
20180817150017 90 160 4.0 7.0 0.00 0.00 0.00 70 1019.0
20180817145506 90 213 2.0 7.0 0.00 0.00 0.00 71 1019.0
20180817145025 90 183 2.0 6.0 0.00 0.00 0.00 73 1019.0
20180817144510 89 230 3.0 8.0 0.00 0.00 0.00 71 1019.0
20180817144011 89 206 4.0 9.0 0.00 0.00 0.00 71 1019.1
20180817143514 88 150 3.0 9.0 0.00 0.00 0.00 72 1019.1
20180817143017 89 210 2.0 8.0 0.00 0.00 0.00 73 1019.1
20180817142523 88 168 3.0 8.0 0.00 0.00 0.00 74 1019.1
20180817142021 88 206 2.0 5.0 0.00 0.00 0.00 73 1019.2
20180817141524 88 201 2.0 5.0 0.00 0.00 0.00 75 1019.3
20180817141005 87 183 2.0 5.0 0.00 0.00 0.00 73 1019.3
20180817140510 87 179 2.0 6.0 0.00 0.00 0.00 76 1019.3
20180817140011 87 157 2.0 6.0 0.00 0.00 0.00 75 1019.3
20180817135521 86 176 2.0 6.0 0.00 0.00 0.00 75 1019.3
20180817135021 86 157 3.0 8.0 0.00 0.00 0.00 77 1019.3
20180817134507 85 201 4.0 8.0 0.00 0.00 0.00 77 1019.4
20180817134007 85 191 4.0 7.0 0.00 0.00 0.00 78 1019.4
20180817133511 84 187 4.0 7.0 0.00 0.00 0.00 78 1019.4
20180817133012 84 177 2.0 6.0 0.00 0.00 0.00 80 1019.4
20180817132518 84 168 3.0 6.0 0.00 0.00 0.00 79 1019.4
20180817132017 83 190 3.0 5.0 0.00 0.00 0.00 81 1019.4
20180817131523 83 204 3.0 6.0 0.00 0.00 0.00 81 1019.4
20180817131013 83 166 4.0 6.0 0.00 0.00 0.00 82 1019.4
20180817130514 82 185 2.0 7.0 0.00 0.00 0.00 83 1019.3
20180817130014 82 172 4.0 7.0 0.00 0.00 0.00 83 1019.4
20180817125505 82 167 3.0 5.0 0.00 0.00 0.00 84 1019.5
20180817125017 81 170 3.0 6.0 0.00 0.00 0.00 85 1019.4
20180817124524 81 191 3.0 6.0 0.00 0.00 0.00 85 1019.4
20180817124005 80 189 3.0 8.0 0.00 0.00 0.00 86 1019.5
20180817123508 80 198 4.0 8.0 0.00 0.00 0.00 87 1019.4
20180817123009 79 193 3.0 8.0 0.00 0.00 0.00 88 1019.3
20180817122516 79 193 4.0 8.0 0.00 0.00 0.00 88 1019.4
20180817122015 78 189 3.0 6.0 0.00 0.00 0.00 89 1019.4
20180817121521 77 202 3.0 7.0 0.00 0.00 0.00 91 1019.4
20180817121023 77 177 4.0 8.0 0.00 0.00 0.00 91 1019.5
20180817120506 76 174 3.0 8.0 0.00 0.00 0.00 92 1019.5
20180817120012 76 170 3.0 6.0 0.00 0.00 0.00 93 1019.5
20180817115518 75 187 3.0 6.0 0.00 0.00 0.00 94 1019.6
20180817115016 75 158 3.0 6.0 0.00 0.00 0.00 94 1019.4
20180817114523 75 192 2.0 5.0 0.00 0.00 0.00 95 1019.4
20180817114005 75 169 1.0 3.0 0.00 0.00 0.00 95 1019.4
20180817113509 74 168 1.0 3.0 0.00 0.00 0.00 96 1019.4
20180817113011 74 186 1.0 3.0 0.00 0.00 0.00 96 1019.5
20180817112518 74 186 1.0 3.0 0.00 0.00 0.00 97 1019.4
20180817112016 74 182 0.0 3.0 0.00 0.00 0.00 97 1019.5
20180817111522 74 182 2.0 3.0 0.00 0.00 0.00 97 1019.4
20180817111024 73 188 0.0 3.0 0.00 0.00 0.00 97 1019.5
20180817110511 73 195 1.0 3.0 0.00 0.00 0.00 97 1019.5
20180817110013 73 197 2.0 5.0 0.00 0.00 0.00 97 1019.6
20180817105520 73 197 2.0 5.0 0.00 0.00 0.00 97 1019.6
20180817105019 73 171 1.0 2.0 0.00 0.00 0.00 96 1019.6
20180817104506 73 171 0.0 0.0 0.00 0.00 0.00 96 1019.7
20180817104007 73 171 0.0 0.0 0.00 0.00 0.00 96 1019.7
20180817103512 73 171 0.0 0.0 0.00 0.00 0.00 96 1019.6
20180817103012 73 171 0.0 0.0 0.00 0.00 0.00 96 1019.6
20180817102519 73 171 0.0 0.0 0.00 0.00 0.00 96 1019.7
20180817102015 73 171 0.0 0.0 0.00 0.00 0.00 96 1019.7
20180817101520 73 171 0.0 0.0 0.00 0.00 0.00 95 1019.7
20180817101005 73 171 0.0 0.0 0.00 0.00 0.00 96 1019.7
20180817100510 73 171 0.0 0.0 0.00 0.00 0.00 96 1019.6
20180817100011 73 171 0.0 0.0 0.00 0.00 0.00 96 1019.5
20180817095518 74 171 0.0 0.0 0.00 0.00 0.00 95 1019.4
20180817095018 74 171 0.0 0.0 0.00 0.00 0.00 96 1019.4
20180817094504 74 171 0.0 0.0 0.00 0.00 0.00 96 1019.3
20180817094007 74 171 0.0 0.0 0.00 0.00 0.00 95 1019.3
20180817093511 74 171 0.0 0.0 0.00 0.00 0.00 95 1019.3
20180817093008 74 171 0.0 0.0 0.00 0.00 0.00 95 1019.2
20180817092517 74 171 0.0 0.0 0.00 0.00 0.00 96 1019.2
20180817092015 74 171 0.0 0.0 0.00 0.00 0.00 96 1019.2
20180817091505 74 171 0.0 0.0 0.00 0.00 0.00 96 1019.2
20180817091006 74 171 0.0 0.0 0.00 0.00 0.00 95 1019.2
20180817090511 74 171 0.0 0.0 0.00 0.00 0.00 95 1019.2
20180817090013 74 171 0.0 0.0 0.00 0.00 0.00 95 1019.3
20180817085518 74 171 0.0 0.0 0.00 0.00 0.00 95 1019.3
20180817085015 74 171 0.0 0.0 0.00 0.00 0.00 94 1019.3
20180817084522 74 171 0.0 0.0 0.00 0.00 0.00 94 1019.4
20180817084005 74 171 0.0 0.0 0.00 0.00 0.00 94 1019.3
20180817083510 74 171 0.0 0.0 0.00 0.00 0.00 94 1019.4
20180817083011 74 171 0.0 2.0 0.00 0.00 0.00 94 1019.4
20180817082519 74 171 0.0 2.0 0.00 0.00 0.00 94 1019.4
20180817082018 74 171 1.0 2.0 0.00 0.00 0.00 94 1019.4
20180817081508 75 171 0.0 1.0 0.00 0.00 0.00 94 1019.3
20180817081009 75 171 0.0 0.0 0.00 0.00 0.00 94 1019.3
20180817080513 75 171 0.0 2.0 0.00 0.00 0.00 94 1019.4
20180817080015 75 171 0.0 2.0 0.00 0.00 0.00 93 1019.4
20180817075522 75 171 1.0 2.0 0.00 0.00 0.00 93 1019.5
20180817075021 75 171 1.0 2.0 0.00 0.00 0.00 93 1019.5
20180817074507 75 179 0.0 0.0 0.00 0.00 0.00 93 1019.4
20180817074009 75 179 0.0 1.0 0.00 0.00 0.00 93 1019.5
20180817073512 75 179 0.0 3.0 0.00 0.00 0.00 93 1019.5
20180817073013 75 179 1.0 3.0 0.00 0.00 0.00 93 1019.5
20180817072520 75 178 1.0 3.0 0.00 0.00 0.00 92 1019.6
20180817072022 75 178 1.0 3.0 0.00 0.00 0.00 92 1019.6
20180817071508 75 178 1.0 3.0 0.00 0.00 0.00 92 1019.7
20180817071010 76 178 2.0 4.0 0.00 0.00 0.00 92 1019.7
20180817070516 76 189 1.0 4.0 0.00 0.00 0.00 92 1019.8
20180817070018 76 181 2.0 4.0 0.00 0.00 0.00 92 1019.8
20180817065524 76 172 2.0 3.0 0.00 0.00 0.00 92 1019.8
20180817065020 76 172 2.0 5.0 0.00 0.00 0.00 91 1019.7
20180817064507 76 176 2.0 5.0 0.00 0.00 0.00 91 1019.7
20180817064007 76 177 1.0 3.0 0.00 0.00 0.00 91 1019.7
20180817063513 76 177 1.0 4.0 0.00 0.00 0.00 91 1019.7
20180817063015 76 175 2.0 4.0 0.00 0.00 0.00 91 1019.7
20180817062506 76 156 2.0 5.0 0.00 0.00 0.00 91 1019.7
20180817062005 76 186 3.0 5.0 0.00 0.00 0.00 92 1019.7
20180817061511 76 169 2.0 5.0 0.00 0.00 0.00 92 1019.7
20180817061012 76 185 2.0 5.0 0.00 0.00 0.00 92 1019.7
20180817060518 76 177 0.0 3.0 0.00 0.00 0.00 91 1019.7
20180817060019 76 177 1.0 2.0 0.00 0.00 0.00 92 1019.8
20180817055506 76 177 0.0 2.0 0.00 0.00 0.00 92 1019.8
20180817055006 76 177 0.0 2.0 0.00 0.00 0.00 92 1019.8
20180817054512 76 177 0.0 0.0 0.00 0.00 0.00 91 1019.9
20180817054014 76 177 0.0 0.0 0.00 0.00 0.00 91 1019.9
20180817053518 76 177 0.0 0.0 0.00 0.00 0.00 91 1019.9
20180817053024 76 177 0.0 0.0 0.00 0.00 0.00 91 1020.0
20180817052510 76 177 0.0 0.0 0.00 0.00 0.00 91 1020.1
20180817052013 77 177 0.0 2.0 0.00 0.00 0.00 91 1020.1
20180817051518 77 177 1.0 2.0 0.00 0.00 0.00 91 1020.1
20180817051019 77 177 0.0 0.0 0.00 0.00 0.00 91 1020.1
20180817050525 77 177 0.0 0.0 0.00 0.00 0.00 91 1020.1
20180817050006 77 177 0.0 0.0 0.00 0.00 0.00 91 1020.1
20180817045513 77 177 0.0 2.0 0.00 0.00 0.00 90 1020.0
20180817045013 77 177 0.0 2.0 0.00 0.00 0.00 90 1020.1
20180817044519 77 177 0.0 2.0 0.00 0.00 0.00 90 1020.2
20180817044021 77 177 0.0 0.0 0.00 0.00 0.00 90 1020.2
20180817043508 77 177 0.0 0.0 0.00 0.00 0.00 90 1020.1
20180817043011 77 177 0.0 3.0 0.00 0.00 0.00 89 1020.1
20180817042517 77 177 1.0 3.0 0.00 0.00 0.00 89 1020.1
20180817042015 77 177 0.0 0.0 0.00 0.00 0.00 89 1020.1
20180817041521 77 177 0.0 0.0 0.00 0.00 0.00 90 1019.9
20180817041024 77 177 0.0 0.0 0.00 0.00 0.00 89 1020.0
20180817040508 77 177 0.0 0.0 0.00 0.00 0.00 89 1020.0
20180817040059 78 177 0.0 0.0 0.00 0.00 0.00 88 1029.3
20180817035508 78 177 0.0 0.0 0.00 0.00 0.00 88 1020.1
20180817035007 78 177 0.0 2.0 0.00 0.00 0.00 88 1020.1
20180817034513 78 177 0.0 2.0 0.00 0.00 0.00 88 1020.1
20180817034017 78 177 0.0 2.0 0.00 0.00 0.00 87 1020.1
20180817033521 78 177 0.0 2.0 0.00 0.00 0.00 87 1020.1
20180817033021 79 177 1.0 3.0 0.00 0.00 0.00 87 1020.0
20180817032507 79 177 1.0 3.0 0.00 0.00 0.00 86 1020.0
20180817032008 79 177 1.0 3.0 0.00 0.00 0.00 86 1020.0
20180817031514 79 177 1.0 3.0 0.00 0.00 0.00 86 1020.1
20180817031015 79 175 0.0 3.0 0.00 0.00 0.00 86 1020.1
20180817030518 79 181 1.0 4.0 0.00 0.00 0.00 86 1020.1
20180817030019 79 181 2.0 4.0 0.00 0.00 0.00 86 1020.1
20180817025524 79 164 2.0 3.0 0.00 0.00 0.00 86 1020.1
20180817025023 79 161 2.0 3.0 0.00 0.00 0.00 86 1020.0
20180817024512 79 153 1.0 2.0 0.00 0.00 0.00 86 1020.0
20180817024014 79 153 1.0 2.0 0.00 0.00 0.00 86 1019.9
20180817023518 79 153 0.0 0.0 0.00 0.00 0.00 86 1019.9
20180817023020 79 153 0.0 0.0 0.00 0.00 0.00 87 1019.9
20180817022505 78 153 0.0 0.0 0.00 0.00 0.00 87 1020.0
20180817022024 78 153 0.0 0.0 0.00 0.00 0.00 88 1020.0
20180817021509 79 153 0.0 0.0 0.00 0.00 0.00 87 1020.0
20180817021010 79 153 0.0 0.0 0.00 0.00 0.00 87 1020.1
20180817020514 79 152 0.0 0.0 0.00 0.00 0.00 87 1020.1
20180817020014 79 152 0.0 1.0 0.00 0.00 0.00 87 1020.0
20180817015520 79 152 0.0 2.0 0.00 0.00 0.00 86 1019.9
20180817015018 79 152 1.0 2.0 0.00 0.00 0.00 86 1020.0
20180817014507 79 152 1.0 3.0 0.00 0.00 0.00 86 1020.0
20180817014008 79 152 0.0 3.0 0.00 0.00 0.00 87 1020.0
20180817013511 79 114 1.0 3.0 0.00 0.00 0.00 87 1020.0
20180817013013 79 34 0.0 0.0 0.00 0.00 0.00 86 1019.9
20180817012519 79 34 0.0 0.0 0.00 0.00 0.00 86 1019.7
20180817012018 79 34 0.0 0.0 0.00 0.00 0.00 86 1019.7
20180817011523 79 34 0.0 0.0 0.00 0.00 0.00 86 1019.6